Location: Unspecified
(0.0000°N, 0.0000°E)
Time: 20:40:34
(UTC+00:00)

Explorer 7 - Pass Details

Date: 23 June 2025
Orbit: 444 x 569 km, 50.3° (Epoch: 12 July)

Event Time Altitude Azimuth Distance (km) Brightness Sun altitude
Rises 21:55:58 0° 314° (NW) 2,441 - -51.4°
Reaches altitude 10° 21:58:06 10° 309° (NW) 1,585 - -51.8°
Maximum altitude 22:01:34 49° 233° (SW) 604 - -52.5°
Drops below altitude 10° 22:05:11 10° 157° (SSE) 1,650 - -53.1°
Sets 22:07:27 0° 151° (SSE) 2,556 - -53.6°
